Home   Weather   Terrebonne   Past weeks

Flag for Canada Past Weather in Terrebonne, Quebec, Canada — Yesterday and Last 2 Weeks

Now
33 °F

Chilly.


Feels Like: 30 °F
Forecast: N/A
Wind: 3 mph from Southwest

Location: L'Assomption Airport

Current Time: Jan 19, 2017 at 4:29:54 pm

Latest Report: Jan 19, 2017 at 3:00 pm


Visibility: N/A

Pressure: 30.00 "Hg

Humidity: 95%

Dew Point: 31 °F

Location of TerrebonneLocation

Past Weather in Terrebonne — Graph

°F

Terrebonne Temperature Yesterday

Maximum temperature yesterday: 26 °F (at 4:00 pm)
Minimum temperature yesterday: 19 °F (at 1:00 am)
Average temperature yesterday: 22 °F

High & Low Weather Summary for the Past Weeks

 TemperatureHumidityPressure
High41 °F (Jan 11, 11:00 pm)100% (Jan 4, 4:00 pm)30.84 "Hg (Jan 4, 4:00 pm)
Low-16 °F (Jan 8, 4:00 am)44% (Jan 13, 2:00 pm)29.28 "Hg (Jan 4, 5:00 pm)
Average16 °F81%30.19 "Hg
* Reported Jan 4 3:00 pm — Jan 19 3:00 pm, Terrebonne, Weather by CustomWeather, © 2017

Note: Actual official high and low records may vary slightly from our data, if they occured in-between our weather recording intervals... More about our weather records

Advertising

Terrebonne Weather History for the Previous 24 Hours

Scroll right to see more
 ConditionsComfort  
Time TempWeatherWind HumidityBarometerVisibility
3:00 pm
Thu, Jan 19
33 °FChilly.3 mph95%30.00 "HgN/A
2:00 pm36 °FChilly.5 mph84%30.00 "HgN/A
1:00 pm35 °FChilly.5 mph92%30.00 "HgN/A
12:00 pm34 °FChilly.5 mph95%30.01 "HgN/A
11:00 am33 °FChilly.5 mph94%30.03 "HgN/A
10:00 am32 °FChilly.2 mph99%30.03 "HgN/A
9:00 am33 °FChilly.6 mph100%30.02 "HgN/A
8:00 am30 °FChilly.5 mph100%30.00 "HgN/A
7:00 am30 °FChilly.8 mph100%29.98 "HgN/A
6:00 am30 °FChilly.5 mph100%29.98 "HgN/A
5:00 am29 °FChilly.5 mph100%29.96 "HgN/A
4:00 am29 °FChilly.5 mph100%29.96 "HgN/A
3:00 am28 °FChilly.6 mph100%29.96 "HgN/A
2:00 am27 °FChilly.6 mph99%29.96 "HgN/A
1:00 am28 °FChilly.3 mph93%29.96 "HgN/A
12:00 am24 °FCold.2 mph98%29.96 "HgN/A
11:00 pm
Wed, Jan 18
24 °FCold.1 mph98%29.98 "HgN/A
10:00 pm23 °FCold.1 mph97%29.98 "HgN/A
9:00 pm23 °FCold.2 mph98%29.99 "HgN/A
8:00 pm24 °FCold.3 mph98%30.00 "HgN/A
7:00 pm24 °FCold.2 mph100%30.00 "HgN/A
6:00 pm24 °FCold.3 mph100%29.99 "HgN/A
5:00 pm24 °FCold.5 mph100%30.00 "HgN/A
4:00 pm26 °FChilly.5 mph91%29.99 "HgN/A
Weather by CustomWeather, © 2017

See weather overviewHow to use our weather pages